TimeCST,TemperatureF,Dew PointF,Humidity,Sea Level PressureIn,VisibilityMPH,Wind Direction,Wind SpeedMPH,Gust SpeedMPH,PrecipitationIn,Events,Conditions,WindDirDegrees,DateUTC
12:53 AM,45.0,37.9,76,30.36,10.0,WNW,6.9,-,N/A,,Clear,300,2013-11-27 06:53:00
1:53 AM,45.0,37.0,74,30.36,10.0,WNW,9.2,-,N/A,,Clear,300,2013-11-27 07:53:00
2:53 AM,45.0,37.0,74,30.36,10.0,NW,9.2,-,N/A,,Clear,310,2013-11-27 08:53:00
3:53 AM,45.0,36.0,71,30.38,10.0,NW,10.4,-,N/A,,Clear,320,2013-11-27 09:53:00
4:53 AM,43.0,35.1,74,30.38,10.0,NNW,8.1,-,N/A,,Clear,330,2013-11-27 10:53:00
5:53 AM,41.0,34.0,76,30.39,10.0,NW,5.8,-,N/A,,Clear,320,2013-11-27 11:53:00
6:53 AM,42.1,33.1,70,30.41,10.0,NNW,9.2,-,N/A,,Clear,330,2013-11-27 12:53:00
7:53 AM,45.0,33.1,63,30.43,10.0,NNW,10.4,-,N/A,,Clear,330,2013-11-27 13:53:00
8:53 AM,48.9,32.0,52,30.45,10.0,North,11.5,20.7,N/A,,Clear,350,2013-11-27 14:53:00
9:53 AM,52.0,35.1,53,30.46,10.0,NNW,10.4,-,N/A,,Clear,340,2013-11-27 15:53:00
10:53 AM,55.0,34.0,45,30.45,10.0,North,11.5,-,N/A,,Clear,360,2013-11-27 16:53:00
11:53 AM,55.9,34.0,44,30.43,10.0,NW,10.4,-,N/A,,Clear,320,2013-11-27 17:53:00
12:53 PM,57.0,34.0,42,30.41,10.0,NW,10.4,17.3,N/A,,Clear,320,2013-11-27 18:53:00
1:53 PM,57.0,34.0,42,30.39,10.0,NNW,10.4,-,N/A,,Clear,340,2013-11-27 19:53:00
2:53 PM,57.9,32.0,37,30.36,10.0,NW,9.2,16.1,N/A,,Clear,320,2013-11-27 20:53:00
3:53 PM,57.0,32.0,39,30.35,10.0,NNW,6.9,17.3,N/A,,Clear,340,2013-11-27 21:53:00
4:53 PM,55.9,32.0,40,30.35,10.0,North,4.6,-,N/A,,Clear,350,2013-11-27 22:53:00
5:53 PM,48.9,37.9,66,30.37,10.0,ENE,5.8,-,N/A,,Clear,60,2013-11-27 23:53:00
6:53 PM,46.9,37.9,71,30.39,10.0,NNE,4.6,-,N/A,,Clear,30,2013-11-28 00:53:00
7:53 PM,46.9,36.0,66,30.39,10.0,NNE,3.5,-,N/A,,Clear,20,2013-11-28 01:53:00
8:53 PM,45.0,36.0,71,30.41,10.0,North,3.5,-,N/A,,Clear,10,2013-11-28 02:53:00
9:53 PM,42.1,35.1,76,30.41,10.0,Calm,Calm,-,N/A,,Clear,0,2013-11-28 03:53:00
10:53 PM,41.0,36.0,82,30.41,10.0,Calm,Calm,-,N/A,,Clear,0,2013-11-28 04:53:00
11:53 PM,41.0,36.0,82,30.39,10.0,Calm,Calm,-,N/A,,Clear,0,2013-11-28 05:53:00